Home > Weather > Rastatt > Past weeks

Flag for Germany Past Weather in Rastatt, Baden-Württemberg, Germany — Yesterday and Last 2 Weeks

Now
70 °F

Sunny.


Feels Like: 70 °F
Forecast: 61 / 78 °F
Wind: 5 mph from Southwest

Location: Karlsruhe - Baden Wurttemberg

Current Time: Jul 28, 2016 at 10:22:08 PM

Latest Report: Jul 28, 2016 at 9:50 PM


Visibility: 10 mi

Pressure: 30.01 "Hg

Humidity: 78%

Dew Point: 63 °F

Location of RastattLocation

Past Weather in Rastatt — Graph

°F

Rastatt Temperature Yesterday

Maximum temperature yesterday: 79 °F (at 2:50 PM)
Minimum temperature yesterday: 64 °F (at 4:50 AM)
Average temperature yesterday: 73 °F

High & Low Weather Summary for the Past Weeks

 TemperatureHumidityPressure
High93 °F (Jul 20, 3:50 PM)100% (Jul 14, 11:20 PM)30.33 "Hg (Jul 14, 11:20 PM)
Low50 °F (Jul 16, 4:50 AM)28% (Jul 20, 6:50 PM)29.89 "Hg (Jul 20, 6:20 PM)
Average71 °F71%30.10 "Hg
* Reported Jul 13 8:50 PM — Jul 28 8:50 PM, Rastatt, Weather by CustomWeather, © 2016

Note: Actual official high and low records may vary slightly from our data, if they occured in-between our weather recording intervals... More about our weather records

Advertising

Rastatt Weather History for the Previous 24 Hours

Scroll right to see more
 ConditionsComfort  
Time TempWeatherWind HumidityBarometerVisibility
8:50 PM
Thu, Jul 28
72 °FSunny.7 mph73%30.01 "Hg10 mi
8:20 PM72 °FPassing clouds.6 mph73%30.01 "HgN/A
7:50 PM72 °FPassing clouds.8 mph73%30.01 "HgN/A
7:20 PM72 °FScattered showers. Broken clouds.9 mph73%29.98 "HgN/A
6:50 PM75 °FBroken clouds.5 mph57%29.98 "HgN/A
6:20 PM79 °FSunny.5 mph51%29.98 "Hg10 mi
5:50 PM79 °FPassing clouds.5 mph51%29.98 "HgN/A
5:20 PM81 °FPassing clouds.7 mph51%30.01 "HgN/A
4:50 PM81 °FPassing clouds.6 mph51%30.01 "HgN/A
4:20 PM79 °FPassing clouds.6 mph51%30.01 "HgN/A
3:50 PM79 °FPassing clouds.7 mph51%30.01 "HgN/A
2:50 PM77 °FWarm.6 mph54%30.04 "HgN/A
2:20 PM77 °FPassing clouds.6 mph54%30.04 "HgN/A
1:50 PM75 °FSunny.3 mph65%30.04 "Hg10 mi
1:20 PM73 °FPassing clouds.6 mph65%30.04 "HgN/A
12:50 PM73 °FSunny.3 mph65%30.07 "Hg10 mi
12:20 PM72 °FPassing clouds.5 mph73%30.07 "HgN/A
11:50 AM72 °FPassing clouds.5 mph69%30.07 "HgN/A
11:20 AM73 °FPassing clouds.6 mph65%30.07 "HgN/A
10:50 AM73 °FPassing clouds.5 mph69%30.07 "HgN/A
10:20 AM72 °FPassing clouds.6 mph73%30.07 "HgN/A
9:50 AM70 °FPassing clouds.6 mph73%30.07 "HgN/A
9:20 AM68 °FPassing clouds.7 mph78%30.07 "HgN/A
8:50 AM66 °FSunny.6 mph83%30.07 "Hg10 mi
8:20 AM64 °FSunny.6 mph88%30.04 "Hg10 mi
7:50 AM63 °FSunny.5 mph88%30.04 "Hg10 mi
7:20 AM61 °FSunny.5 mph94%30.04 "Hg10 mi
6:50 AM61 °FPassing clouds.6 mph94%30.04 "HgN/A
6:20 AM63 °FClear.5 mph88%30.04 "Hg10 mi
5:50 AM61 °FClear.1 mph94%30.07 "Hg10 mi
5:20 AM61 °FClear.5 mph94%30.07 "Hg10 mi
4:50 AM63 °FClear.5 mph88%30.07 "Hg10 mi
11:20 PM
Wed, Jul 27
68 °FClear.3 mph69%30.07 "Hg10 mi
10:50 PM68 °FClear.3 mph69%30.07 "Hg10 mi
10:20 PM72 °FClear.2 mph65%30.07 "Hg10 mi
Weather by CustomWeather, © 2016

See weather overviewHow to use our weather pages